Radiation Dose at Monitoring Post of Fukushima Daini Nuclear Power Station
Date,Time,MP-1(microSv/h),MP-2(microSv/h),MP-3(microSv/h),MP-4(microSv/h),MP-5(microSv/h),MP-6(microSv/h),MP-7(microSv/h),Wind Direction,Wind Velocity(m/s),Rain
2014/03/09,00:00,0.8,0.5,0.8,0.7,0.7,0.3,0.3,south-southwest,1.1,No
2014/03/09,00:10,0.8,0.5,0.8,0.7,0.7,0.3,0.3,-,CALM,No
2014/03/09,00:20,0.8,0.5,0.8,0.7,0.7,0.3,0.3,-,CALM,No
2014/03/09,00:30,0.8,0.5,0.8,0.7,0.7,0.3,0.3,west-northwest,2.1,No
2014/03/09,00:40,0.8,0.5,0.8,0.7,0.7,0.3,0.3,west-northwest,2.6,No
2014/03/09,00:50,0.8,0.5,0.8,0.7,0.7,0.3,0.3,west,4.4,No
2014/03/09,01:00,0.8,0.5,0.8,0.7,0.7,0.3,0.3,northwest,3.4,No
2014/03/09,01:10,0.8,0.5,0.8,0.7,0.7,0.3,0.3,northwest,4.5,No
2014/03/09,01:20,0.8,0.5,0.8,0.7,0.7,0.3,0.3,northwest,4.9,No
2014/03/09,01:30,0.8,0.5,0.8,0.7,0.7,0.3,0.3,northwest,3.7,No
2014/03/09,01:40,0.8,0.5,0.8,0.7,0.7,0.3,0.3,west-northwest,3.2,No
2014/03/09,01:50,0.8,0.5,0.8,0.7,0.7,0.3,0.3,north-northwest,1.9,No
2014/03/09,02:00,0.8,0.5,0.8,0.7,0.7,0.3,0.3,north,0.8,No
2014/03/09,02:10,0.8,0.5,0.8,0.7,0.7,0.3,0.3,north,1.7,No
2014/03/09,02:20,0.8,0.5,0.8,0.7,0.7,0.3,0.3,northwest,1.7,No
2014/03/09,02:30,0.8,0.5,0.8,0.7,0.7,0.3,0.3,northwest,3.6,No
2014/03/09,02:40,0.8,0.5,0.8,0.7,0.7,0.3,0.3,northwest,2.8,No
2014/03/09,02:50,0.8,0.5,0.8,0.7,0.7,0.3,0.3,north-northwest,2.8,No
2014/03/09,03:00,0.8,0.5,0.8,0.7,0.7,0.3,0.3,north-northwest,3.1,No
2014/03/09,03:10,0.8,0.5,0.8,0.7,0.7,0.3,0.3,north-northwest,2.7,No
2014/03/09,03:20,0.8,0.5,0.8,0.7,0.7,0.3,0.3,north,1.1,No
2014/03/09,03:30,0.8,0.5,0.8,0.7,0.7,0.3,0.3,north,1.3,No
2014/03/09,03:40,0.8,0.5,0.8,0.7,0.7,0.3,0.3,north,2.2,No
2014/03/09,03:50,0.8,0.5,0.8,0.7,0.7,0.3,0.3,north,3.3,No
2014/03/09,04:00,0.8,0.5,0.8,0.7,0.7,0.3,0.3,north-northwest,3.9,No
2014/03/09,04:10,0.8,0.5,0.8,0.7,0.7,0.3,0.3,north,5.3,No
2014/03/09,04:20,0.8,0.5,0.8,0.7,0.7,0.3,0.3,north,6.7,No
2014/03/09,04:30,0.8,0.5,0.8,0.7,0.7,0.3,0.3,north,4.1,No
2014/03/09,04:40,0.8,0.5,0.8,0.7,0.7,0.3,0.3,north,4.5,No
2014/03/09,04:50,0.8,0.5,0.8,0.7,0.7,0.3,0.3,north,5.4,No
2014/03/09,05:00,0.8,0.5,0.8,0.7,0.7,0.3,0.3,north,5.0,No
2014/03/09,05:10,0.8,0.5,0.8,0.7,0.7,0.3,0.3,north,5.5,No
2014/03/09,05:20,0.8,0.5,0.8,0.7,0.7,0.3,0.3,north,4.8,No
2014/03/09,05:30,0.8,0.5,0.8,0.7,0.7,0.3,0.3,north,4.8,No
2014/03/09,05:40,0.8,0.5,0.8,0.7,0.7,0.3,0.3,north,4.8,No
2014/03/09,05:50,0.8,0.5,0.8,0.7,0.7,0.3,0.3,north,5.5,No
2014/03/09,06:00,0.8,0.5,0.8,0.7,0.7,0.3,0.3,north,5.6,No
2014/03/09,06:10,0.8,0.5,0.8,0.7,0.7,0.3,0.3,north,4.5,No
2014/03/09,06:20,0.8,0.5,0.8,0.7,0.7,0.3,0.3,north,5.3,No
2014/03/09,06:30,0.8,0.5,0.8,0.7,0.7,0.3,0.3,north,5.3,No
2014/03/09,06:40,0.8,0.5,0.8,0.7,0.7,0.3,0.3,north,5.3,No
2014/03/09,06:50,0.8,0.5,0.8,0.7,0.7,0.3,0.3,north,5.5,No
2014/03/09,07:00,0.8,0.5,0.8,0.7,0.7,0.3,0.3,north,4.4,No
2014/03/09,07:10,0.8,0.5,0.8,0.7,0.7,0.3,0.3,north,4.9,No
2014/03/09,07:20,0.8,0.5,0.8,0.7,0.7,0.3,0.3,north,3.8,No
2014/03/09,07:30,0.8,0.5,0.8,0.7,0.7,0.3,0.3,north,3.1,No
2014/03/09,07:40,0.8,0.5,0.8,0.7,0.7,0.3,0.3,north,1.7,No
2014/03/09,07:50,0.8,0.5,0.8,0.7,0.7,0.3,0.3,north-northeast,2.9,No
2014/03/09,08:00,0.8,0.5,0.8,0.7,0.7,0.3,0.3,north,3.6,No
2014/03/09,08:10,0.8,0.5,0.8,0.7,0.7,0.3,0.3,north-northeast,3.9,No
2014/03/09,08:20,0.8,0.5,0.8,0.7,0.7,0.3,0.3,north-northeast,3.6,No
2014/03/09,08:30,0.8,0.5,0.8,0.7,0.7,0.3,0.3,north-northeast,2.4,No
2014/03/09,08:40,0.8,0.5,0.8,0.7,0.7,0.3,0.3,north-northeast,3.6,No
2014/03/09,08:50,0.8,0.5,0.8,0.7,0.7,0.3,0.3,north,3.5,No
2014/03/09,09:00,0.8,0.5,0.8,0.7,0.7,0.3,0.3,north-northeast,2.9,No
2014/03/09,09:10,0.8,0.5,0.8,0.7,0.7,0.3,0.3,north-northeast,2.2,No
2014/03/09,09:20,0.8,0.5,0.8,0.7,0.7,0.3,0.3,northeast,1.4,No
2014/03/09,09:30,0.8,0.5,0.8,0.7,0.7,0.3,0.3,northeast,1.1,No
2014/03/09,09:40,0.8,0.5,0.8,0.7,0.7,0.3,0.3,southeast,1.2,No
2014/03/09,09:50,0.8,0.5,0.8,0.7,0.7,0.3,0.3,south,1.9,No
2014/03/09,10:00,0.8,0.5,0.8,0.7,0.7,0.3,0.3,south,1.8,No
2014/03/09,10:10,0.8,0.5,0.8,0.7,0.7,0.3,0.3,south,1.6,No
2014/03/09,10:20,0.8,0.5,0.8,0.7,0.7,0.3,0.3,southeast,2.2,No
2014/03/09,10:30,0.8,0.5,0.8,0.7,0.7,0.3,0.3,east-southeast,2.8,No
2014/03/09,10:40,0.8,0.5,0.8,0.7,0.7,0.3,0.3,southeast,3.1,No
2014/03/09,10:50,0.8,0.5,0.8,0.7,0.7,0.3,0.3,east-southeast,3.0,No
2014/03/09,11:00,0.8,0.5,0.8,0.7,0.7,0.3,0.3,southeast,2.0,No
2014/03/09,11:10,0.8,0.5,0.8,0.7,0.7,0.3,0.3,southeast,2.8,No
2014/03/09,11:20,0.8,0.5,0.8,0.7,0.7,0.3,0.3,east-southeast,3.5,No
2014/03/09,11:30,0.8,0.5,0.8,0.7,0.7,0.3,0.3,southeast,2.2,No
2014/03/09,11:40,0.8,0.5,0.8,0.7,0.7,0.3,0.3,east,2.7,No
2014/03/09,11:50,0.8,0.5,0.8,0.7,0.7,0.3,0.3,southeast,2.2,No
2014/03/09,12:00,0.8,0.5,0.8,0.7,0.7,0.3,0.3,east-southeast,3.1,No
2014/03/09,12:10,0.8,0.5,0.8,0.7,0.7,0.3,0.3,east-southeast,3.0,No
2014/03/09,12:20,0.8,0.5,0.8,0.7,0.7,0.3,0.3,east,2.6,No
2014/03/09,12:30,0.8,0.5,0.8,0.7,0.7,0.3,0.3,east-southeast,2.5,No
2014/03/09,12:40,0.8,0.5,0.8,0.7,0.7,0.3,0.3,east,2.2,No
2014/03/09,12:50,0.8,0.5,0.8,0.7,0.7,0.3,0.3,east,1.2,No
2014/03/09,13:00,0.8,0.5,0.8,0.7,0.7,0.3,0.3,east-southeast,1.1,No
2014/03/09,13:10,0.8,0.5,0.8,0.7,0.7,0.3,0.3,south-southeast,2.0,No
2014/03/09,13:20,0.8,0.5,0.8,0.7,0.7,0.3,0.3,south,1.4,No
2014/03/09,13:30,0.8,0.5,0.8,0.7,0.7,0.3,0.3,south-southeast,2.1,No
2014/03/09,13:40,0.8,0.5,0.8,0.7,0.7,0.3,0.3,south-southeast,2.8,No
2014/03/09,13:50,0.8,0.5,0.8,0.7,0.7,0.3,0.3,south-southeast,3.9,No
2014/03/09,14:00,0.8,0.5,0.8,0.7,0.7,0.3,0.3,south-southeast,2.9,No
2014/03/09,14:10,0.8,0.5,0.8,0.7,0.7,0.3,0.3,south-southeast,3.2,No
2014/03/09,14:20,0.8,0.5,0.8,0.7,0.7,0.3,0.3,south,3.4,No
2014/03/09,14:30,0.8,0.5,0.8,0.7,0.7,0.3,0.3,south,4.0,No
2014/03/09,14:40,0.8,0.5,0.8,0.7,0.7,0.3,0.3,south-southeast,3.1,No
2014/03/09,14:50,0.8,0.5,0.8,0.7,0.7,0.3,0.3,south,4.6,No
2014/03/09,15:00,0.8,0.5,0.8,0.7,0.7,0.3,0.3,south,3.9,No
2014/03/09,15:10,0.8,0.5,0.8,0.7,0.7,0.3,0.3,south,4.5,No
2014/03/09,15:20,0.8,0.5,0.8,0.7,0.7,0.3,0.3,south,4.2,No
2014/03/09,15:30,0.8,0.5,0.8,0.7,0.7,0.3,0.3,south,3.9,No
2014/03/09,15:40,0.8,0.5,0.8,0.7,0.7,0.3,0.3,south,4.4,No
2014/03/09,15:50,0.8,0.5,0.8,0.7,0.7,0.3,0.3,south,4.3,No
2014/03/09,16:00,0.8,0.5,0.8,0.7,0.7,0.3,0.3,south,4.7,No
2014/03/09,16:10,0.8,0.5,0.8,0.7,0.7,0.3,0.3,south,4.8,No
2014/03/09,16:20,0.8,0.5,0.8,0.7,0.7,0.3,0.3,south,5.9,No
2014/03/09,16:30,0.8,0.5,0.8,0.7,0.7,0.3,0.3,south,5.2,No
2014/03/09,16:40,0.8,0.5,0.8,0.7,0.7,0.3,0.3,south,5.0,No
2014/03/09,16:50,0.8,0.5,0.8,0.7,0.7,0.3,0.3,south,6.4,No
2014/03/09,17:00,0.8,0.5,0.8,0.7,0.7,0.3,0.3,south,4.9,No
2014/03/09,17:10,0.8,0.5,0.8,0.7,0.7,0.3,0.3,south,5.3,No
2014/03/09,17:20,0.8,0.5,0.8,0.7,0.7,0.3,0.3,south,5.7,No
2014/03/09,17:30,0.8,0.5,0.8,0.7,0.7,0.3,0.3,south,5.1,No
2014/03/09,17:40,0.8,0.5,0.8,0.7,0.7,0.3,0.3,south,5.3,No
2014/03/09,17:50,0.8,0.5,0.8,0.7,0.7,0.3,0.3,south,6.1,No
2014/03/09,18:00,0.8,0.5,0.8,0.7,0.7,0.3,0.3,south-southwest,6.6,No
2014/03/09,18:10,0.8,0.5,0.8,0.7,0.7,0.3,0.3,south-southwest,5.5,No
2014/03/09,18:20,0.8,0.5,0.8,0.7,0.7,0.3,0.3,south-southwest,6.7,No
2014/03/09,18:30,0.8,0.5,0.8,0.7,0.7,0.3,0.3,south-southwest,7.2,No
2014/03/09,18:40,0.8,0.5,0.8,0.7,0.7,0.3,0.3,south-southwest,5.8,No
2014/03/09,18:50,0.8,0.5,0.8,0.7,0.7,0.3,0.3,south-southwest,6.3,No
2014/03/09,19:00,0.8,0.5,0.8,0.7,0.7,0.3,0.3,southwest,6.4,No
2014/03/09,19:10,0.8,0.5,0.8,0.7,0.7,0.3,0.3,south-southwest,5.6,No
2014/03/09,19:20,0.8,0.5,0.8,0.7,0.7,0.3,0.3,south-southwest,5.6,No
2014/03/09,19:30,0.8,0.5,0.8,0.7,0.7,0.3,0.3,south-southwest,4.5,No
2014/03/09,19:40,0.8,0.5,0.8,0.7,0.7,0.3,0.3,south-southwest,3.6,No
2014/03/09,19:50,0.8,0.5,0.8,0.7,0.7,0.3,0.3,south-southwest,2.7,No
2014/03/09,20:00,0.8,0.5,0.8,0.7,0.7,0.3,0.3,south-southwest,3.3,No
2014/03/09,20:10,0.8,0.5,0.8,0.7,0.7,0.3,0.3,south-southwest,3.0,No
2014/03/09,20:20,0.8,0.5,0.8,0.7,0.7,0.3,0.3,south-southwest,2.8,No
2014/03/09,20:30,0.8,0.5,0.8,0.7,0.7,0.3,0.3,south-southwest,3.1,No
2014/03/09,20:40,0.8,0.5,0.8,0.7,0.7,0.3,0.3,southwest,2.9,No
2014/03/09,20:50,0.8,0.5,0.8,0.7,0.7,0.3,0.3,southwest,2.2,No
2014/03/09,21:00,0.8,0.5,0.8,0.7,0.7,0.3,0.3,southwest,2.5,No
2014/03/09,21:10,0.8,0.5,0.8,0.7,0.7,0.3,0.3,west-southwest,2.2,No
2014/03/09,21:20,0.8,0.5,0.8,0.7,0.7,0.3,0.3,west-southwest,3.4,No
2014/03/09,21:30,0.8,0.5,0.8,0.7,0.7,0.3,0.3,west,4.3,No
2014/03/09,21:40,0.8,0.5,0.8,0.7,0.7,0.3,0.3,west,4.2,No
2014/03/09,21:50,0.8,0.5,0.8,0.7,0.7,0.3,0.3,west-southwest,5.0,No
2014/03/09,22:00,0.8,0.5,0.8,0.7,0.7,0.3,0.3,west,5.3,No
2014/03/09,22:10,0.8,0.5,0.8,0.7,0.7,0.3,0.3,west,4.4,No
2014/03/09,22:20,0.8,0.5,0.8,0.7,0.7,0.3,0.3,west,4.9,No
2014/03/09,22:30,0.8,0.5,0.8,0.7,0.7,0.3,0.3,west,2.8,No
2014/03/09,22:40,0.8,0.5,0.8,0.7,0.7,0.3,0.3,west-northwest,2.7,No
2014/03/09,22:50,0.8,0.5,0.8,0.7,0.7,0.3,0.3,northwest,3.9,No
2014/03/09,23:00,0.8,0.5,0.8,0.7,0.7,0.3,0.3,north-northwest,4.8,No
2014/03/09,23:10,0.8,0.5,0.8,0.7,0.7,0.3,0.3,north,6.3,No
2014/03/09,23:20,0.8,0.5,0.8,0.7,0.7,0.3,0.3,north,8.6,No
2014/03/09,23:30,0.8,0.5,0.8,0.7,0.7,0.3,0.3,north-northwest,9.4,No
2014/03/09,23:40,0.8,0.5,0.8,0.7,0.7,0.3,0.3,north-northwest,8.7,No
2014/03/09,23:50,0.8,0.5,0.8,0.7,0.7,0.3,0.3,north-northwest,8.1,No
